FW2520 Weather Reports


Display with metric or nautical units.
time (UTC)temp
F
wind
direction
speed
MPH
gust
MPH
rain 1hr
in
rain 24hr
in
rain mn
in
humidity
%
barometer
mb
20260906040028 75 202 0.0 2.0 0.00 0.23 0.23 57 1013.3
20260906034538 75 202 0.0 1.0 0.00 0.23 0.23 57 1013.4
20260906033045 75 202 0.0 2.0 0.00 0.23 0.23 58 1013.5
20260906031545 75 196 0.0 4.0 0.00 0.23 0.23 59 1013.5
20260906030043 75 174 0.0 2.0 0.00 0.23 0.23 59 1013.2
20260906024542 76 174 0.0 3.0 0.00 0.23 0.23 60 1013.5
20260906023027 77 173 1.0 3.0 0.00 0.23 0.23 61 1013.0
20260906021526 77 178 0.0 1.0 0.00 0.23 0.23 60 1012.5
20260906020028 77 178 0.0 0.0 0.00 0.23 0.23 60 1012.5
20260906014532 77 178 0.0 3.0 0.00 0.23 0.23 60 1012.6
20260906013026 77 148 0.0 0.0 0.00 0.23 0.23 61 1012.5
20260906011525 77 148 0.0 1.0 0.00 0.23 0.23 61 1012.4
20260906010025 78 148 0.0 5.0 0.00 0.23 0.23 61 1012.3
20260906004525 79 278 0.0 1.0 0.00 0.23 0.23 60 1012.2
20260906003023 79 278 0.0 1.0 0.00 0.23 0.23 59 1012.1
20260906001524 79 278 2.0 5.0 0.00 0.23 0.23 59 1012.1
20260906000028 81 286 0.0 1.0 0.00 0.23 0.23 58 1012.0
20260905234522 81 286 0.0 2.0 0.01 0.23 0.23 57 1011.7
20260905233004 81 286 1.0 4.0 0.01 0.23 0.23 56 1011.6
20260905231504 81 295 1.0 4.0 0.01 0.23 0.23 55 1011.3
20260905230003 81 272 3.0 6.0 0.01 0.23 0.23 55 1011.4
20260905224504 81 293 1.0 4.0 0.00 0.22 0.22 55 1011.5
20260905223021 81 259 2.0 5.0 0.00 0.22 0.22 55 1011.5
20260905221521 81 270 1.0 4.0 0.00 0.22 0.22 55 1011.4
20260905220019 79 288 3.0 8.0 0.00 0.22 0.22 55 1011.4
20260905214520 78 283 3.0 9.0 0.00 0.22 0.22 56 1011.4
20260905213019 77 343 2.0 8.0 0.00 0.22 0.22 56 1011.8
20260905211517 76 281 3.0 8.0 0.00 0.22 0.22 56 1012.0
20260905210016 74 257 4.0 10.0 0.00 0.22 0.22 56 1012.1
20260905204517 74 254 4.0 8.0 0.00 0.22 0.22 58 1012.6
20260905203017 73 268 3.0 7.0 0.00 0.22 0.22 58 1012.8
20260905201515 73 322 2.0 8.0 0.00 0.22 0.22 58 1012.9
20260905200023 74 231 1.0 3.0 0.16 0.22 0.22 60 1012.6
20260905194514 73 99 0.0 3.0 0.22 0.22 0.22 60 1012.3
20260905193025 73 223 0.0 7.0 0.22 0.22 0.22 61 1012.7
20260905191510 74 103 2.0 12.0 0.22 0.22 0.22 61 1012.9
20260905190012 77 31 8.0 20.0 0.15 0.15 0.15 57 1013.6
20260905184508 85 327 10.0 22.0 0.00 0.00 0.00 36 1012.9
20260905183003 94 355 4.0 13.0 0.00 0.00 0.00 35 1012.2
20260905181505 95 340 3.0 9.0 0.00 0.00 0.00 33 1011.5
20260905180059 95 5 2.0 8.0 0.00 0.00 0.00 34 1012.0
20260905174559 95 360 0.0 10.0 0.00 0.00 0.00 34 1012.5
20260905173107 95 141 2.0 5.0 0.00 0.00 0.00 35 1012.8
20260905171652 94 259 1.0 6.0 0.00 0.00 0.00 36 1013.1
20260905170050 93 276 3.0 5.0 0.00 0.00 0.00 38 1013.3
20260905164548 95 259 1.0 7.0 0.00 0.00 0.00 35 1013.5
20260905163022 93 323 1.0 5.0 0.00 0.00 0.00 40 1013.7
20260905161519 91 248 1.0 5.0 0.00 0.00 0.00 43 1014.0
20260905160051 92 142 1.0 4.0 0.00 0.00 0.00 44 1014.1
20260905154548 91 116 2.0 4.0 0.00 0.00 0.00 45 1014.2
20260905153038 90 195 1.0 4.0 0.00 0.00 0.00 47 1014.1
20260905151535 88 191 0.0 3.0 0.00 0.00 0.00 50 1014.1
20260905150030 87 268 3.0 6.0 0.00 0.00 0.00 51 1014.4
20260905144541 86 247 2.0 7.0 0.00 0.00 0.00 53 1014.4
20260905143025 85 265 3.0 7.0 0.00 0.00 0.00 54 1014.5
20260905141535 84 196 1.0 3.0 0.00 0.00 0.00 55 1014.3
20260905140020 82 242 0.0 3.0 0.00 0.00 0.00 56 1014.4
20260905134518 81 242 2.0 4.0 0.00 0.00 0.00 56 1014.6
20260905133015 82 167 1.0 5.0 0.00 0.00 0.00 56 1014.6
20260905131515 81 142 0.0 3.0 0.00 0.00 0.00 55 1014.7
20260905130014 81 143 1.0 3.0 0.00 0.00 0.00 55 1014.7
20260905124515 79 233 0.0 3.0 0.00 0.00 0.00 56 1014.6
20260905123013 79 225 2.0 3.0 0.00 0.00 0.00 56 1014.7
20260905121513 77 225 0.0 1.0 0.00 0.00 0.00 58 1014.5
20260905120015 77 225 0.0 2.0 0.00 0.00 0.00 58 1014.4
20260905114515 76 225 0.0 2.0 0.00 0.00 0.00 59 1014.4
20260905113016 76 225 0.0 2.0 0.00 0.00 0.00 59 1014.2
20260905111512 76 225 0.0 2.0 0.00 0.00 0.00 59 1013.9
20260905110015 76 225 0.0 2.0 0.00 0.00 0.00 60 1013.4
20260905104511 76 225 0.0 2.0 0.00 0.00 0.00 60 1013.1
20260905103019 76 225 0.0 0.0 0.00 0.00 0.00 60 1013.1
20260905101515 76 225 0.0 0.0 0.00 0.00 0.00 60 1013.1
20260905100014 76 225 0.0 0.0 0.00 0.00 0.00 60 1012.9
20260905094513 76 225 0.0 2.0 0.00 0.00 0.00 61 1013.1
20260905093012 77 225 0.0 0.0 0.00 0.00 0.00 62 1013.0
20260905091510 77 225 0.0 2.0 0.00 0.00 0.00 62 1013.0
20260905090040 78 225 0.0 1.0 0.00 0.00 0.00 62 1013.0
20260905084538 78 225 0.0 1.0 0.00 0.00 0.00 62 1013.2
20260905083052 77 225 0.0 3.0 0.00 0.00 0.00 62 1013.3
20260905081550 78 225 0.0 2.0 0.00 0.00 0.00 62 1013.3
20260905080048 78 225 0.0 3.0 0.00 0.00 0.00 62 1013.5
20260905074555 79 225 0.0 2.0 0.00 0.00 0.00 62 1013.7
20260905073002 79 225 0.0 3.0 0.00 0.00 0.00 61 1013.7
20260905071502 79 225 0.0 0.0 0.00 0.00 0.00 61 1014.1
20260905070003 79 225 0.0 2.0 0.00 0.00 0.00 62 1014.1
20260905064613 79 225 2.0 4.0 0.00 0.00 0.00 61 1014.3
20260905063041 80 243 1.0 3.0 0.00 0.00 0.00 59 1014.4
20260905061545 82 241 0.0 1.0 0.00 0.00 0.00 56 1014.5
20260905060046 82 241 0.0 1.0 0.00 0.00 0.00 58 1014.8
20260905054539 82 241 0.0 2.0 0.00 0.00 0.00 58 1014.8
20260905053040 81 241 0.0 0.0 0.00 0.00 0.00 58 1015.0
20260905051547 81 241 0.0 2.0 0.00 0.00 0.00 58 1014.9
20260905050040 82 241 0.0 0.0 0.00 0.00 0.00 57 1015.0
20260905044551 82 241 0.0 2.0 0.00 0.00 0.00 57 1015.2
20260905043038 82 241 0.0 3.0 0.00 0.00 0.00 57 1015.1
20260905041538 84 246 0.0 1.0 0.00 0.00 0.00 54 1015.2